THOR ABLESTAR DEB, 956

Orbit data source: Space-Track

THOR ABLESTAR DEB, 956 is space debris in LEO originally from a launch on Sun, 13 Dec 1964 UTC launched from the Air Force Western Test Range (AFWTR). Debris objects in space refer to the collection of defunct objects orbiting the Earth. Examples of debris include non-operational satellites, rocket bodies, and fragments generated from explosions, collisions, or faulty payload assembly.

Loading next visibility...
Identifier
956, 1964-083B
Orbit
LEO
Country
Flag of USUS
Related business
Manufacturer
Unknown
Mission
Spacecraft
Bus & Motor
Unknown
Mass
Unknown
Launch date (UTC)
1964-12-13 (61 years ago)
Launch vehicle
Unknown
Launch site
Air Force Western Test Range (AFWTR)
Object type
Payload
Rocket body
Debris
Shape & HBR
Unknown shape, 0.1 m
Radar Cross Section
Small (<0.1 m²)

Expand to show TLE details & history
Last TLE update: 15 hours ago

TLE from 15 hours ago
0 THOR ABLESTAR DEB
1 00956U 64083B   25310.58636127  .00000413  00000-0  47803-3 0  9993
2 00956  89.9319 170.5236 0022759 328.1176  60.5230 13.67413874 25702
Epoch: 2025-11-06T14:04Z
TLE epoch observation values (Epoch: 2025-11-06T14:04:21.613Z)
Latitude
28.91146°
Longitude
-86.57159°
Altitude
1,004.283 km
Speed
7.356 km/s
True Right ascension
11h 22m 14s
True Declination
28° 46' 16"
Sunlit
Object was in daylight at epoch
Visualization orbit readout
Latitude
Unknown
Longitude
Unknown
Altitude
Unknown
Speed
Unknown
Apparent Right ascension
Unknown
Apparent Declination
Unknown
Sunlit
N/A
Visualization observer readout
Local Sidereal Time
01:03:56
Azimuth
Unknown
Elevation
Unknown
Doppler factor
Unknown
Orbital elements
Apogee altitude
1,022.7 km
Perigee altitude
989.089 km
Semi-major axis
7,384.032 km
Eccentricity
0.00228
Inclination
89.9319°
RAAN
170.5236°
Arg. of periapsis
328.1176°
True anomaly
60.75036°
Mean anomaly
60.523°
Eccentric anomaly
60.63665°
Mean motion
3.4206 °/min
Orbital period
105.24 mins
BSTAR
0.00047803
Loading maneuver chart data...
Computing Atmospheric mass density...

Documentation

Showing up to 5 results
|